NA5X-13 Weather Reports


time (UTC)temp
F
wind
direction
speed
knots
gust
knots
rain 1hr
in
rain 24hr
in
rain mn
in
humidity
%
barometer
mb
20260509173053 89 69 0.9 4.3 0.00 0.00 0.00 54 1011.3
20260509171541 88 159 1.7 4.3 0.00 0.00 0.00 55 1011.3
20260509170104 87 328 0.9 3.5 0.00 0.00 0.00 61 1011.4
20260509164529 86 44 0.9 3.5 0.00 0.00 0.00 59 1011.4
20260509163047 86 133 0.9 5.2 0.00 0.00 0.00 62 1011.6
20260509161546 86 37 0.9 3.5 0.00 0.00 0.00 62 1011.7
20260509160029 84 128 0.9 2.6 0.00 0.00 0.00 62 1011.9
20260509154523 83 53 1.7 4.3 0.00 0.00 0.00 70 1011.9
20260509153023 82 343 1.7 3.5 0.00 0.00 0.00 73 1011.9
20260509151533 81 349 0.9 4.3 0.00 0.00 0.00 77 1011.9
20260509150024 80 69 2.6 4.3 0.00 0.00 0.00 78 1011.7
20260509144537 78 70 0.9 5.2 0.00 0.00 0.00 82 1011.7
20260509143034 78 335 1.7 4.3 0.00 0.00 0.00 81 1011.7
20260509141531 76 37 1.7 7.0 0.00 0.00 0.00 84 1011.6
20260509140027 75 354 1.7 5.2 0.00 0.00 0.00 87 1011.7
20260509134545 74 343 0.9 4.3 0.00 0.00 0.00 88 1011.8
20260509133058 75 26 0.9 5.2 0.00 0.00 0.00 89 1011.4
20260509131554 73 68 0.0 1.7 0.00 0.00 0.00 94 1010.8
20260509130029 71 113 0.0 1.7 0.00 0.00 0.00 96 1010.8
20260509124547 71 155 1.7 5.2 0.00 0.00 0.00 96 1010.5
20260509123036 70 326 1.7 7.8 0.00 0.00 0.00 97 1010.2
20260509121534 70 129 2.6 7.8 0.00 0.00 0.00 97 1008.8
20260509120028 69 202 3.5 7.0 0.00 0.00 0.00 97 1008.6
20260509114542 69 170 3.5 6.1 0.00 0.00 0.00 97 1009.0
20260509113044 69 183 2.6 7.0 0.00 0.00 0.00 97 1009.7
20260509111529 69 143 1.7 5.2 0.00 0.00 0.00 97 1010.3
20260509110049 69 170 2.6 6.1 0.00 0.00 0.00 98 1010.0
20260509104605 68 160 3.5 6.1 0.00 0.00 0.00 98 1010.4
20260509103041 68 146 3.5 6.1 0.00 0.00 0.00 97 1010.6
20260509101536 68 158 0.9 2.6 0.00 0.00 0.00 98 1011.1
20260509100025 68 167 0.9 1.7 0.00 0.00 0.00 98 1011.5
20260509094543 68 195 0.0 0.0 0.00 0.00 0.00 98 1011.7
20260509093035 68 195 0.0 0.0 0.00 0.00 0.00 97 1011.6
20260509091532 68 195 0.0 0.9 0.00 0.00 0.00 97 1011.7
20260509090029 67 195 0.0 0.0 0.00 0.00 0.00 97 1011.8
20260509084526 68 195 0.0 0.0 0.00 0.00 0.00 97 1011.7
20260509083043 68 319 0.0 1.7 0.00 0.00 0.00 98 1012.2
20260509081540 66 208 0.0 0.9 0.00 0.00 0.00 98 1012.5
20260509080027 65 201 0.0 0.0 0.00 0.00 0.00 97 1012.4
20260509074546 66 200 0.0 0.0 0.00 0.00 0.00 96 1011.8
20260509073041 66 201 0.0 0.0 0.00 0.00 0.00 97 1011.7
20260509071531 67 201 0.0 0.0 0.00 0.00 0.00 97 1011.7
20260509070044 67 204 0.9 1.7 0.00 0.00 0.00 97 1011.8
20260509064542 67 209 0.0 0.0 0.00 0.00 0.00 97 1012.0
20260509063026 66 209 0.0 0.0 0.00 0.00 0.00 97 1011.8
20260509061547 66 209 0.0 0.0 0.00 0.00 0.00 97 1011.3
20260509060044 65 209 0.0 0.0 0.00 0.00 0.00 96 1011.0
20260509054530 66 209 0.0 0.0 0.00 0.00 0.00 96 1010.8
20260509053029 66 209 0.0 0.0 0.00 0.00 0.00 96 1010.8
20260509051549 67 209 0.0 0.0 0.00 0.00 0.00 96 1011.2
20260509050036 67 209 0.0 0.0 0.00 0.00 0.00 96 1011.4
20260509044531 67 209 0.0 0.0 0.00 0.00 0.00 96 1011.3
20260509043025 66 209 0.0 0.0 0.00 0.00 0.00 96 1011.3
20260509041524 66 209 0.0 0.0 0.00 0.00 0.00 96 1011.3
20260509040040 66 209 0.0 0.0 0.00 0.01 0.00 96 1011.2
20260509034534 66 209 0.0 0.0 0.00 0.01 0.00 95 1010.6
20260509033034 67 209 0.0 0.0 0.00 0.01 0.00 95 1010.3
20260509031544 67 209 0.0 0.0 0.00 0.01 0.00 94 1010.3
20260509030041 68 209 0.0 0.0 0.00 0.01 0.00 94 1010.0
20260509024527 68 209 0.0 0.9 0.00 0.01 0.00 93 1009.8
20260509023047 69 209 0.0 0.0 0.00 0.01 0.00 92 1009.7
20260509021544 70 209 0.0 0.0 0.00 0.01 0.00 91 1009.7
20260509020056 71 208 0.0 0.0 0.00 0.01 0.00 90 1009.3
20260509014553 72 209 0.0 0.0 0.00 0.01 0.00 90 1009.2
20260509013030 72 208 0.0 0.0 0.00 0.01 0.00 89 1009.4
20260509011523 73 209 0.0 0.0 0.00 0.01 0.00 88 1009.5
20260509010059 73 209 0.0 0.9 0.00 0.01 0.00 87 1009.5
20260509004535 74 200 0.0 0.9 0.00 0.01 0.00 87 1009.6
20260509003031 74 203 0.0 0.9 0.00 0.01 0.00 87 1009.6
20260509001523 74 194 0.0 2.6 0.00 0.01 0.00 86 1009.5
20260509000037 74 245 2.6 5.2 0.00 0.01 0.00 85 1009.5
20260508234553 74 214 2.6 4.3 0.00 0.01 0.00 85 1009.5
20260508233101 74 216 2.6 5.2 0.00 0.01 0.00 85 1009.6
20260508231527 75 209 2.6 5.2 0.00 0.01 0.00 84 1009.4
20260508230032 75 181 1.7 4.3 0.00 0.01 0.00 84 1009.4
20260508224531 75 202 1.7 5.2 0.00 0.01 0.00 83 1009.6
20260508223042 75 175 0.9 3.5 0.00 0.01 0.00 83 1009.7
20260508221547 75 214 0.9 4.3 0.00 0.01 0.00 82 1009.7
20260508220059 74 162 1.7 5.2 0.00 0.01 0.00 84 1010.0
20260508214525 74 210 0.0 2.6 0.00 0.01 0.00 83 1010.5
20260508213046 74 236 0.9 3.5 0.00 0.01 0.00 82 1010.5
20260508211543 74 281 0.9 5.2 0.00 0.01 0.00 83 1010.6
20260508210028 73 195 0.0 1.7 0.00 0.01 0.00 83 1011.2
20260508204548 73 212 0.0 1.7 0.00 0.01 0.00 83 1011.5
20260508203044 72 216 0.0 1.7 0.00 0.01 0.00 83 1011.7
20260508201533 72 159 1.7 4.3 0.00 0.01 0.00 83 1011.8
20260508200027 72 193 0.0 3.5 0.00 0.01 0.00 83 1011.9
20260508194531 72 18 0.0 1.7 0.00 0.01 0.00 82 1012.0
20260508193024 72 349 0.9 4.3 0.00 0.01 0.00 83 1012.1
20260508191540 71 232 0.0 2.6 0.00 0.01 0.00 83 1012.3
20260508190036 71 304 0.0 1.7 0.00 0.01 0.00 83 1012.6
20260508184553 71 130 0.9 3.5 0.00 0.01 0.00 83 1012.7
20260508183030 70 20 0.0 3.5 0.00 0.01 0.00 83 1012.9
20260508181522 69 330 0.0 2.6 0.00 0.01 0.00 85 1013.1
20260508180039 68 98 0.0 0.9 0.00 0.01 0.00 84 1013.6
20260508174537 68 316 0.9 1.7 0.00 0.01 0.00 84 1013.9